Home   Weather   Hobart   Past weeks
Flag for Australia

Past Weather in Hobart, Tasmania, Australia — Yesterday and Last 2 Weeks

Now
61 °F

Scattered clouds.


Feels Like: 61 °F
Forecast: 69 / 40 °F
Wind: 10 mph from Northwest

Location: Hobart Airport

Current Time: Oct 21, 2019 at 11:06:53 am

Latest Report: Oct 21, 2019 at 10:00 am


Visibility: N/A

Pressure: 30.18 "Hg

Humidity: 42%

Dew Point: 37 °F

Location of HobartLocation

Past Weather in Hobart — Graph

°F

Hobart Temperature Yesterday

Maximum temperature yesterday: 66 °F (at 1:00 pm)
Minimum temperature yesterday: 50 °F (at 12:00 am)
Average temperature yesterday: 57 °F

High & Low Weather Summary for the Past Weeks

 TemperatureHumidityPressure
High73 °F (Oct 14, 1:30 pm)100% (Oct 16, 1:30 am)30.33 "Hg (Oct 16, 1:30 am)
Low37 °F (Oct 13, 5:30 am)31% (Oct 14, 2:00 pm)29.42 "Hg (Oct 6, 2:18 pm)
Average52 °F67%29.94 "Hg
* Reported Oct 6 10:00 am — Oct 21 10:00 am, Hobart. Weather by CustomWeather, © 2019

Note: Actual official high and low records may vary slightly from our data, if they occured in-between our weather recording intervals... More about our weather records

Advertising

Hobart Weather History for the Previous 24 Hours

Scroll right to see more
 ConditionsComfort  
Time TempWeatherWind HumidityBarometerVisibility
10:00 am
Mon, Oct 21
61 °FScattered clouds.10 mph42%30.18 "HgN/A
9:30 am59 °FScattered clouds.13 mph45%30.18 "HgN/A
9:00 am59 °FScattered clouds.12 mph48%30.18 "HgN/A
8:30 am57 °FScattered clouds.14 mph51%30.18 "HgN/A
8:00 am55 °FPassing clouds.13 mph55%30.15 "HgN/A
7:30 am54 °FPassing clouds.13 mph58%30.15 "HgN/A
7:00 am54 °FPassing clouds.14 mph58%30.15 "HgN/A
6:30 am52 °FPassing clouds.13 mph62%30.12 "HgN/A
6:00 am52 °FPassing clouds.14 mph58%30.12 "HgN/A
5:30 am52 °FClear.8 mph58%30.12 "HgN/A
5:00 am54 °FClear.8 mph54%30.12 "HgN/A
4:30 am52 °FClear.10 mph58%30.12 "HgN/A
4:00 am54 °FClear.10 mph54%30.09 "HgN/A
3:30 am54 °FClear.14 mph58%30.09 "HgN/A
3:00 am54 °FClear.20 mph54%30.09 "HgN/A
2:30 am54 °FClear.18 mph54%30.09 "HgN/A
2:00 am54 °FClear.17 mph54%30.09 "HgN/A
1:30 am54 °FClear.17 mph58%30.09 "HgN/A
1:00 am54 °FClear.17 mph58%30.09 "HgN/A
12:30 am54 °FClear.12 mph63%30.12 "HgN/A
12:00 am54 °FClear.15 mph63%30.12 "HgN/A
11:30 pm
Sun, Oct 20
54 °FPassing clouds.10 mph63%30.09 "HgN/A
11:00 pm55 °FPassing clouds.9 mph59%30.09 "HgN/A
10:30 pm55 °FPassing clouds.9 mph55%30.09 "HgN/A
10:00 pm55 °FPassing clouds.12 mph55%30.09 "HgN/A
9:30 pm55 °FPassing clouds.10 mph55%30.07 "HgN/A
9:00 pm55 °FPassing clouds.15 mph59%30.07 "HgN/A
8:30 pm57 °FPassing clouds.17 mph55%30.04 "HgN/A
8:00 pm57 °FPartly cloudy.15 mph59%30.04 "HgN/A
7:30 pm59 °FBroken clouds.13 mph51%30.04 "HgN/A
7:00 pm59 °FBroken clouds.15 mph55%30.01 "HgN/A
6:30 pm59 °FBroken clouds.15 mph55%30.01 "HgN/A
6:00 pm61 °FBroken clouds.15 mph52%29.98 "HgN/A
5:30 pm61 °FPartly sunny.16 mph52%29.98 "HgN/A
5:00 pm63 °FBroken clouds.15 mph52%29.95 "HgN/A
4:30 pm64 °FBroken clouds.14 mph46%29.95 "HgN/A
4:00 pm64 °FBroken clouds.15 mph43%29.92 "HgN/A
3:30 pm66 °FBroken clouds.16 mph40%29.92 "HgN/A
3:00 pm66 °FScattered clouds.17 mph40%29.92 "HgN/A
2:34 pm66 °FScattered clouds.21 mph40%29.89 "HgN/A
2:00 pm64 °FScattered clouds.22 mph43%29.89 "HgN/A
1:30 pm64 °FScattered clouds.23 mph43%29.89 "HgN/A
1:00 pm66 °FSprinkles. Broken clouds.23 mph40%29.89 "HgN/A
12:30 pm63 °FBroken clouds.23 mph45%29.89 "HgN/A
12:00 pm61 °FBroken clouds.21 mph48%29.86 "HgN/A
11:30 am61 °FBroken clouds.21 mph45%29.86 "HgN/A
11:00 am61 °FBroken clouds.16 mph48%29.86 "HgN/A
Weather by CustomWeather, © 2019

See weather overview